This demonstration page uses our WeatherBlox Daily Observations layout. Learn more.

Hourly Observations for February 12, 2020

Temp ( °F °C ) Dew Point ( °F °C ) Humidity (%) Winds ( mph kmh ) Pressure ( in mb ) Visibility ( mi km ) Precip ( " mm )
12:15 am 00:15 Partly Cloudy 43 6 36 2 76 76 WNW 6 9 30.09 1019 10 16.0934 0 0
12:35 am 00:35 Partly Cloudy 43 6 36 2 76 76 WNW 7 11 30.11 1020 10 16.0934 0 0
12:55 am 00:55 Mostly Cloudy 43 6 34 1 71 71 Calm 30.11 1020 10 16.0934 0 0
1:15 am 01:15 Mostly Cloudy 43 6 34 1 71 71 Calm 30.11 1020 10 16.0934 0 0
1:35 am 01:35 Clear 41 5 34 1 76 76 Calm 30.12 1020 10 16.0934 0 0
2:15 am 02:15 Clear 41 5 32 0 70 70 WSW 3 6 30.12 1020 10 16.0934 0 0
2:35 am 02:35 Clear 41 5 30 -1 66 66 W 7 11 30.12 1020 10 16.0934 0 0
2:55 am 02:55 Clear 41 5 28 -2 61 61 NW 10 17 30.13 1020 10 16.0934 0 0
3:15 am 03:15 Clear 39 4 30 -1 70 70 W 9 15 30.14 1021 10 16.0934 0 0
3:35 am 03:35 Clear 37 3 30 -1 75 75 WNW 12 19 30.15 1021 10 16.0934 0 0
3:55 am 03:55 Clear 37 3 30 -1 75 75 NW 12 19 30.15 1021 10 16.0934 0 0
4:15 am 04:15 Clear 39 4 30 -1 70 70 Calm 30.17 1022 10 16.0934 0 0
4:35 am 04:35 Clear 39 4 30 -1 70 70 Calm 30.16 1021 10 16.0934 0 0
4:55 am 04:55 Clear 36 2 30 -1 81 81 WNW 10 17 30.19 1022 10 16.0934 0 0
5:15 am 05:15 Clear 37 3 30 -1 75 75 NW 8 13 30.19 1022 10 16.0934 0 0
5:35 am 05:35 Clear 37 3 30 -1 75 75 Calm 30.2 1023 10 16.0934 0 0
5:55 am 05:55 Clear 36 2 32 0 87 87 N 5 7 30.2 1023 10 16.0934 0 0
6:15 am 06:15 Clear 37 3 30 -1 75 75 N 3 6 30.21 1023 10 16.0934 0 0
6:35 am 06:35 Clear 36 2 32 0 87 87 NNW 3 6 30.23 1024 10 16.0934 0 0
6:55 am 06:55 Clear 36 2 32 0 87 87 NW 8 13 30.24 1024 10 16.0934 0 0
7:15 am 07:15 Sunny 36 2 30 -1 81 81 NNW 8 13 30.24 1024 10 16.0934 0 0
7:35 am 07:35 Sunny 36 2 30 -1 81 81 N 5 7 30.25 1024 10 16.0934 0 0
7:55 am 07:55 Sunny 36 2 32 0 87 87 Calm 30.26 1025 10 16.0934 0 0
8:15 am 08:15 Sunny 37 3 32 0 81 81 N 8 13 30.24 1024 10 16.0934 0 0
8:35 am 08:35 Sunny 37 3 32 0 81 81 Calm 30.25 1024 10 16.0934 0 0
8:55 am 08:55 Sunny 37 3 30 -1 75 75 NE 5 7 30.26 1025 10 16.0934 0 0
9:15 am 09:15 Sunny 39 4 30 -1 70 70 N 5 7 30.28 1025 10 16.0934 0 0
9:35 am 09:35 Sunny 39 4 30 -1 70 70 Calm 30.29 1026 10 16.0934 0 0
9:55 am 09:55 Sunny 39 4 30 -1 70 70 NE 3 6 30.28 1025 10 16.0934 0 0
10:15 am 10:15 Sunny 41 5 30 -1 66 66 N 3 6 30.27 1025 10 16.0934 0 0
10:35 am 10:35 Sunny 43 6 32 0 66 66 N 6 9 30.27 1025 10 16.0934 0 0
10:55 am 10:55 Sunny 43 6 30 -1 61 61 Calm 30.26 1025 10 16.0934 0 0
11:15 am 11:15 Sunny 43 6 30 -1 61 61 Calm 30.26 1025 10 16.0934 0 0
11:35 am 11:35 Sunny 43 6 30 -1 61 61 Calm 30.24 1024 10 16.0934 0 0
11:55 am 11:55 Sunny 43 6 32 0 66 66 Calm 30.24 1024 10 16.0934 0 0
12:15 pm 12:15 Sunny 43 6 30 -1 61 61 Calm 30.25 1024 10 16.0934 0 0
12:35 pm 12:35 Sunny 45 7 32 0 61 61 S 3 6 30.22 1023 10 16.0934 0 0
12:55 pm 12:55 Sunny 43 6 32 0 66 66 Calm 30.22 1023 10 16.0934 0 0
1:15 pm 13:15 Partly Cloudy 45 7 32 0 61 61 Calm 30.22 1023 10 16.0934 0 0
1:35 pm 13:35 Mostly Cloudy 45 7 32 0 61 61 Calm 30.22 1023 10 16.0934 0 0
1:55 pm 13:55 Mostly Cloudy 45 7 30 -1 57 57 SSE 3 6 30.18 1022 10 16.0934 0 0
2:15 pm 14:15 Partly Cloudy 45 7 32 0 61 61 S 6 9 30.17 1022 10 16.0934 0 0
2:35 pm 14:35 Partly Cloudy 46 8 32 0 57 57 S 8 13 30.16 1021 10 16.0934 0 0
2:55 pm 14:55 Mostly Cloudy 46 8 32 0 57 57 SSW 6 9 30.16 1021 10 16.0934 0 0
3:15 pm 15:15 Cloudy 45 7 32 0 61 61 S 3 6 30.19 1022 10 16.0934 0 0
3:35 pm 15:35 Cloudy 45 7 32 0 61 61 Calm 30.19 1022 10 16.0934 0 0
3:55 pm 15:55 Cloudy 45 7 32 0 61 61 SW 3 6 30.18 1022 10 16.0934 0 0
4:15 pm 16:15 Cloudy 45 7 34 1 66 66 SSW 3 6 30.17 1022 10 16.0934 0 0
4:35 pm 16:35 Cloudy 43 6 36 2 76 76 SSW 6 9 30.17 1022 10 16.0934 0 0
4:55 pm 16:55 Cloudy 43 6 37 3 81 81 S 7 11 30.16 1021 10 16.0934 0 0
5:15 pm 17:15 Cloudy 43 6 37 3 81 81 SSW 7 11 30.15 1021 10 16.0934 0 0
5:35 pm 17:35 Cloudy 41 5 37 3 87 87 SW 5 7 30.15 1021 7 11.26538 0 0
5:55 pm 17:55 Cloudy 41 5 37 3 87 87 Calm 30.14 1021 10 16.0934 0 0
6:15 pm 18:15 Cloudy 41 5 37 3 87 87 Calm 30.15 1021 5 8.0467 0 0
6:35 pm 18:35 Cloudy 41 5 37 3 87 87 SSE 3 6 30.14 1021 3 4.82802 0 0
6:55 pm 18:55 Cloudy 39 4 37 3 93 93 ESE 5 7 30.13 1020 4 6.43736 0 0
7:15 pm 19:15 Cloudy 39 4 37 3 93 93 SSE 8 13 30.12 1020 2.5 4.02335 0 0
7:35 pm 19:35 Cloudy 37 3 37 3 100 100 SSE 9 15 30.12 1020 2.5 4.02335 0 0
7:55 pm 19:55 Cloudy 37 3 37 3 100 100 SE 8 13 30.1 1019 5 8.0467 0 0
8:15 pm 20:15 Cloudy 37 3 37 3 100 100 SSE 7 11 30.11 1020 5 8.0467 0 0
8:35 pm 20:35 Cloudy 37 3 37 3 100 100 SE 8 13 30.09 1019 7 11.26538 0 0
8:55 pm 20:55 Cloudy 37 3 37 3 100 100 SE 8 13 30.08 1019 7 11.26538 0 0
9:15 pm 21:15 Cloudy 37 3 37 3 100 100 SE 6 9 30.05 1018 7 11.26538 0 0
9:35 pm 21:35 Cloudy 37 3 37 3 100 100 SSE 9 15 30.03 1017 7 11.26538 0 0
9:55 pm 21:55 Cloudy 37 3 37 3 100 100 SE 7 11 30.02 1016 10 16.0934 0 0
10:15 pm 22:15 Cloudy 37 3 37 3 100 100 SSE 12 19 30 1016 10 16.0934 0 0
11:35 pm 23:35 Cloudy 37 3 37 3 100 100 S 12 19 29.93 1013 10 16.0934 0 0
11:55 pm 23:55 Cloudy 37 3 37 3 100 100 S 13 20 29.93 1013 10 16.0934 0 0

Powered by AerisWeather